CEB494 RPVE-RPLL

Flight info

Callsign CEB494
Flight time 0h 46m
Altitude 24000
Route MINOR8A MINOR B473 LAIYA LAIYA7R
Aircraft A320/M-SDE3FGHIRWY/LB1

Departure

Time 2026-05-05 13:55
Airport Godofredo P. Ramos Airport (RPVE)

Arrival

Time 2026-05-05 14:42
Airport Ninoy Aquino International Airport (RPLL)
Time Latitude Longitude Altitude Speed Heading
2026-05-05 13:17 11.92710 121.96437 41 ft 0 kts 154°
2026-05-05 13:35 11.92719 121.96432 39 ft 2 kts 155°
2026-05-05 13:35 11.92734 121.96426 40 ft 2 kts 169°
2026-05-05 13:35 11.92749 121.96430 40 ft 2 kts 239°
2026-05-05 13:35 11.92752 121.96435 39 ft 0 kts 242°
2026-05-05 13:41 11.92745 121.96422 37 ft 6 kts 243°
2026-05-05 13:42 11.92724 121.96380 42 ft 6 kts 243°
2026-05-05 13:42 11.92707 121.96344 42 ft 5 kts 244°
2026-05-05 13:42 11.92693 121.96315 42 ft 4 kts 244°
2026-05-05 13:42 11.92682 121.96293 41 ft 3 kts 243°
2026-05-05 13:43 11.92675 121.96279 42 ft 2 kts 243°
2026-05-05 13:43 11.92672 121.96272 42 ft 1 kts 243°
2026-05-05 13:43 11.92665 121.96258 42 ft 6 kts 243°
2026-05-05 13:43 11.92651 121.96213 42 ft 5 kts 278°
2026-05-05 13:44 11.92671 121.96188 42 ft 4 kts 330°
2026-05-05 13:44 11.92697 121.96175 41 ft 4 kts 333°
2026-05-05 13:44 11.92726 121.96160 40 ft 5 kts 333°
2026-05-05 13:44 11.92735 121.96155 40 ft 0 kts 332°
2026-05-05 13:46 11.92750 121.96147 39 ft 5 kts 332°
2026-05-05 13:47 11.92795 121.96120 34 ft 9 kts 314°
2026-05-05 13:47 11.92797 121.96069 34 ft 6 kts 242°
2026-05-05 13:47 11.92776 121.96036 35 ft 5 kts 238°
2026-05-05 13:47 11.92763 121.96011 35 ft 3 kts 243°
2026-05-05 13:48 11.92754 121.95994 35 ft 2 kts 243°
2026-05-05 13:48 11.92748 121.95981 33 ft 3 kts 243°
2026-05-05 13:48 11.92732 121.95949 35 ft 7 kts 243°
2026-05-05 13:48 11.92702 121.95890 34 ft 12 kts 243°
2026-05-05 13:49 11.92659 121.95804 34 ft 15 kts 243°
2026-05-05 13:49 11.92615 121.95716 33 ft 13 kts 243°
2026-05-05 13:49 11.92575 121.95636 33 ft 13 kts 243°
2026-05-05 13:49 11.92535 121.95558 32 ft 12 kts 243°
2026-05-05 13:50 11.92499 121.95486 32 ft 11 kts 243°
2026-05-05 13:50 11.92467 121.95422 32 ft 9 kts 243°
2026-05-05 13:50 11.92439 121.95366 33 ft 8 kts 243°
2026-05-05 13:50 11.92415 121.95316 32 ft 7 kts 243°
2026-05-05 13:51 11.92393 121.95272 32 ft 7 kts 243°
2026-05-05 13:51 11.92373 121.95233 32 ft 6 kts 243°
2026-05-05 13:51 11.92351 121.95188 33 ft 9 kts 243°
2026-05-05 13:51 11.92322 121.95132 33 ft 8 kts 242°
2026-05-05 13:52 11.92300 121.95089 36 ft 6 kts 238°
2026-05-05 13:52 11.92274 121.95069 34 ft 4 kts 211°
2026-05-05 13:52 11.92255 121.95059 34 ft 2 kts 212°
2026-05-05 13:52 11.92250 121.95049 34 ft 2 kts 249°
2026-05-05 13:53 11.92254 121.95044 34 ft 1 kts 312°
2026-05-05 13:53 11.92267 121.95048 30 ft 5 kts 20°
2026-05-05 13:53 11.92294 121.95077 36 ft 0 kts 60°
2026-05-05 13:54 11.92308 121.95105 34 ft 27 kts 65°
2026-05-05 13:54 11.92523 121.95531 32 ft 103 kts 63°
2026-05-05 13:54 11.92939 121.96372 66 ft 156 kts 64°
2026-05-05 13:55 11.93448 121.97417 482 ft 173 kts 65°
2026-05-05 13:55 11.94000 121.98591 979 ft 192 kts 65°
2026-05-05 13:55 11.94596 121.99883 1358 ft 210 kts 65°
2026-05-05 13:55 11.95234 122.01299 1796 ft 229 kts 66°
2026-05-05 13:56 11.95985 122.02795 2341 ft 246 kts 56°
2026-05-05 13:56 11.97272 122.04021 2949 ft 264 kts 32°
2026-05-05 13:56 11.98981 122.04834 3607 ft 276 kts 26°
2026-05-05 13:56 12.00737 122.05564 4679 ft 269 kts 24°
2026-05-05 13:57 12.02479 122.06282 5533 ft 272 kts 25°
2026-05-05 13:57 12.04232 122.07044 6307 ft 276 kts 26°
2026-05-05 13:57 12.05994 122.07859 7037 ft 280 kts 27°
2026-05-05 13:57 12.07767 122.08715 7778 ft 283 kts 28°
2026-05-05 13:58 12.09549 122.09601 8514 ft 287 kts 28°
2026-05-05 13:58 12.11353 122.10513 9243 ft 291 kts 28°
2026-05-05 13:58 12.13178 122.11442 9964 ft 295 kts 28°
2026-05-05 13:58 12.15009 122.12376 10459 ft 306 kts 28°
2026-05-05 13:59 12.19051 122.14432 11085 ft 339 kts 28°
2026-05-05 13:59 12.21196 122.15519 11538 ft 348 kts 28°
2026-05-05 14:00 12.25580 122.17732 12788 ft 354 kts 27°
2026-05-05 14:00 12.27050 122.18473 13204 ft 356 kts 27°
2026-05-05 14:00 12.30012 122.19968 13984 ft 360 kts 27°
2026-05-05 14:00 12.32283 122.21092 14509 ft 364 kts 23°
2026-05-05 14:01 12.34774 122.21782 15055 ft 369 kts
2026-05-05 14:01 12.37348 122.21790 15578 ft 374 kts 353°
2026-05-05 14:01 12.39878 122.21103 16088 ft 379 kts 338°
2026-05-05 14:01 12.42180 122.19765 16588 ft 384 kts 326°
2026-05-05 14:02 12.44399 122.18212 17076 ft 387 kts 327°
2026-05-05 14:02 12.46630 122.16653 17569 ft 390 kts 327°
2026-05-05 14:02 12.48887 122.15079 18057 ft 394 kts 327°
2026-05-05 14:02 12.51132 122.13519 18498 ft 397 kts 327°
2026-05-05 14:03 12.53454 122.11913 18908 ft 400 kts 327°
2026-05-05 14:03 12.55792 122.10349 19339 ft 403 kts 327°
2026-05-05 14:03 12.58127 122.08743 19768 ft 406 kts 326°
2026-05-05 14:03 12.60440 122.07118 20179 ft 409 kts 326°
2026-05-05 14:04 12.62783 122.05461 20585 ft 412 kts 326°
2026-05-05 14:04 12.65171 122.03809 20995 ft 415 kts 327°
2026-05-05 14:04 12.67583 122.02166 21409 ft 418 kts 327°
2026-05-05 14:04 12.69999 122.00492 21814 ft 421 kts 326°
2026-05-05 14:05 12.72421 121.98781 22226 ft 424 kts 326°
2026-05-05 14:05 12.74852 121.97055 22624 ft 427 kts 326°
2026-05-05 14:05 12.77304 121.95318 23018 ft 430 kts 326°
2026-05-05 14:05 12.79773 121.93580 23407 ft 432 kts 326°
2026-05-05 14:06 12.82269 121.91837 23738 ft 435 kts 326°
2026-05-05 14:06 12.84775 121.90094 23895 ft 435 kts 326°
2026-05-05 14:06 12.87258 121.88370 23944 ft 426 kts 326°
2026-05-05 14:06 12.89707 121.86671 23950 ft 425 kts 326°
2026-05-05 14:07 12.92154 121.84969 23947 ft 424 kts 326°
2026-05-05 14:07 12.94592 121.83267 23947 ft 423 kts 326°
2026-05-05 14:07 12.97030 121.81560 23947 ft 423 kts 326°
2026-05-05 14:07 12.99462 121.79858 23947 ft 423 kts 326°
2026-05-05 14:08 13.01866 121.78178 23946 ft 423 kts 326°
2026-05-05 14:08 13.04332 121.76459 23951 ft 423 kts 326°
2026-05-05 14:08 13.06763 121.74765 23949 ft 423 kts 326°
2026-05-05 14:08 13.09196 121.73071 23952 ft 423 kts 326°
2026-05-05 14:09 13.11592 121.71398 23953 ft 422 kts 325°
2026-05-05 14:09 13.14023 121.69699 23954 ft 422 kts 325°
2026-05-05 14:09 13.16447 121.68003 23953 ft 422 kts 325°
2026-05-05 14:09 13.18875 121.66305 23958 ft 422 kts 325°
2026-05-05 14:10 13.21309 121.64602 23956 ft 422 kts 325°
2026-05-05 14:10 13.23738 121.62902 23957 ft 423 kts 325°
2026-05-05 14:10 13.26170 121.61200 23957 ft 423 kts 325°
2026-05-05 14:10 13.28597 121.59501 23957 ft 423 kts 325°
2026-05-05 14:11 13.31029 121.57798 23957 ft 424 kts 325°
2026-05-05 14:11 13.33466 121.56094 23959 ft 423 kts 325°
2026-05-05 14:11 13.35901 121.54390 23962 ft 423 kts 325°
2026-05-05 14:11 13.38331 121.52689 23967 ft 423 kts 325°
2026-05-05 14:12 13.40765 121.50982 23964 ft 423 kts 325°
2026-05-05 14:12 13.43163 121.49298 23963 ft 423 kts 325°
2026-05-05 14:12 13.45590 121.47593 23964 ft 423 kts 325°
2026-05-05 14:12 13.48019 121.45890 23962 ft 423 kts 325°
2026-05-05 14:13 13.50450 121.44188 23960 ft 423 kts 324°
2026-05-05 14:13 13.52856 121.42501 23761 ft 413 kts 325°
2026-05-05 14:13 13.55203 121.40855 23544 ft 404 kts 325°
2026-05-05 14:13 13.57493 121.39246 23300 ft 394 kts 324°
2026-05-05 14:14 13.59707 121.37649 23046 ft 384 kts 323°
2026-05-05 14:14 13.61127 121.36596 22870 ft 377 kts 323°
2026-05-05 14:14 13.63223 121.35018 22622 ft 372 kts 323°
2026-05-05 14:14 13.66007 121.32911 22288 ft 370 kts 323°
2026-05-05 14:15 13.68080 121.31349 22042 ft 368 kts 323°
2026-05-05 14:15 13.69449 121.30322 21879 ft 367 kts 323°
2026-05-05 14:15 13.71514 121.28779 21633 ft 366 kts 324°
2026-05-05 14:15 13.74240 121.26749 21313 ft 364 kts 324°
2026-05-05 14:16 13.75624 121.25719 21146 ft 363 kts 324°
2026-05-05 14:16 13.77663 121.24203 20910 ft 361 kts 324°
2026-05-05 14:16 13.79692 121.22691 20674 ft 360 kts 324°
2026-05-05 14:16 13.81716 121.21182 20431 ft 358 kts 324°
2026-05-05 14:17 13.83702 121.19701 20210 ft 357 kts 324°
2026-05-05 14:17 13.85708 121.18204 19986 ft 355 kts 324°
2026-05-05 14:17 13.87705 121.16712 19747 ft 354 kts 324°
2026-05-05 14:17 13.89695 121.15225 19518 ft 353 kts 324°
2026-05-05 14:18 13.91674 121.13747 19297 ft 351 kts 324°
2026-05-05 14:18 13.93652 121.12270 19066 ft 350 kts 324°
2026-05-05 14:18 13.95624 121.10796 18844 ft 349 kts 324°
2026-05-05 14:18 13.97583 121.09331 18620 ft 348 kts 324°
2026-05-05 14:19 13.99540 121.07868 18403 ft 347 kts 324°
2026-05-05 14:19 14.01489 121.06414 18176 ft 345 kts 324°
2026-05-05 14:19 14.03436 121.04960 17920 ft 344 kts 324°
2026-05-05 14:19 14.05364 121.03520 17670 ft 343 kts 324°
2026-05-05 14:20 14.07299 121.02070 17411 ft 342 kts 324°
2026-05-05 14:20 14.09224 121.00626 17166 ft 341 kts 324°
2026-05-05 14:20 14.11137 120.99189 16914 ft 340 kts 324°
2026-05-05 14:20 14.13045 120.97757 16669 ft 340 kts 325°
2026-05-05 14:21 14.14950 120.96333 16427 ft 336 kts 325°
2026-05-05 14:21 14.16825 120.94933 16183 ft 330 kts 326°
2026-05-05 14:21 14.18763 120.93715 15946 ft 323 kts 331°
2026-05-05 14:21 14.20699 120.92574 15703 ft 318 kts 331°
2026-05-05 14:22 14.22605 120.91448 15465 ft 313 kts 331°
2026-05-05 14:22 14.24435 120.90264 15224 ft 309 kts 319°
2026-05-05 14:22 14.25669 120.88498 15010 ft 304 kts 289°
2026-05-05 14:22 14.25941 120.86394 14782 ft 294 kts 260°
2026-05-05 14:23 14.25288 120.84451 14546 ft 284 kts 237°
2026-05-05 14:23 14.24302 120.82705 14314 ft 278 kts 237°
2026-05-05 14:23 14.23340 120.80992 14091 ft 273 kts 238°
2026-05-05 14:23 14.22404 120.79311 13881 ft 267 kts 238°
2026-05-05 14:24 14.21493 120.77676 13708 ft 259 kts 238°
2026-05-05 14:24 14.20601 120.76078 13415 ft 256 kts 238°
2026-05-05 14:24 14.19716 120.74495 13105 ft 255 kts 238°
2026-05-05 14:24 14.18828 120.72912 12789 ft 253 kts 238°
2026-05-05 14:25 14.17950 120.71350 12482 ft 251 kts 238°
2026-05-05 14:25 14.17071 120.69792 12185 ft 250 kts 238°
2026-05-05 14:25 14.16210 120.68266 11907 ft 248 kts 238°
2026-05-05 14:25 14.15343 120.66732 11607 ft 247 kts 238°
2026-05-05 14:26 14.14483 120.65212 11324 ft 245 kts 238°
2026-05-05 14:26 14.13627 120.63700 11010 ft 244 kts 238°
2026-05-05 14:26 14.12771 120.62196 10729 ft 242 kts 238°
2026-05-05 14:26 14.11700 120.60900 10490 ft 234 kts 210°
2026-05-05 14:27 14.10211 120.60374 10204 ft 225 kts 177°
2026-05-05 14:27 14.08739 120.60757 9858 ft 218 kts 143°
2026-05-05 14:27 14.07769 120.61901 9504 ft 213 kts 109°
2026-05-05 14:27 14.07627 120.63364 9175 ft 211 kts 75°
2026-05-05 14:28 14.08353 120.64655 8839 ft 212 kts 41°
2026-05-05 14:28 14.09695 120.65275 8511 ft 217 kts
2026-05-05 14:28 14.11174 120.64990 8185 ft 221 kts 335°
2026-05-05 14:28 14.12513 120.64176 7834 ft 225 kts 328°
2026-05-05 14:29 14.13827 120.63258 7585 ft 224 kts 327°
2026-05-05 14:29 14.15115 120.62361 7322 ft 222 kts 332°
2026-05-05 14:29 14.16534 120.61937 7048 ft 213 kts
2026-05-05 14:29 14.17987 120.62165 6797 ft 211 kts 15°
2026-05-05 14:30 14.19414 120.62533 6502 ft 212 kts 17°
2026-05-05 14:30 14.20840 120.62923 6233 ft 211 kts 17°
2026-05-05 14:30 14.22258 120.63311 6016 ft 208 kts 17°
2026-05-05 14:30 14.23615 120.63673 5926 ft 196 kts 17°
2026-05-05 14:31 14.24909 120.64013 5725 ft 192 kts 17°
2026-05-05 14:31 14.26244 120.64370 5303 ft 204 kts 17°
2026-05-05 14:31 14.27635 120.64750 5057 ft 208 kts 20°
2026-05-05 14:31 14.28975 120.65288 5045 ft 206 kts 26°
2026-05-05 14:32 14.30242 120.65873 5056 ft 194 kts 27°
2026-05-05 14:32 14.31364 120.66499 5028 ft 173 kts 48°
2026-05-05 14:32 14.31799 120.67517 5054 ft 148 kts 81°
2026-05-05 14:32 14.32204 120.68518 5068 ft 154 kts 54°
2026-05-05 14:33 14.32778 120.69439 5052 ft 153 kts 62°
2026-05-05 14:33 14.33300 120.70399 5050 ft 153 kts 62°
2026-05-05 14:33 14.33826 120.71352 5087 ft 152 kts 62°
2026-05-05 14:33 14.34352 120.72300 5056 ft 152 kts 62°
2026-05-05 14:34 14.34877 120.73243 5052 ft 152 kts 62°
2026-05-05 14:34 14.35404 120.74188 5049 ft 152 kts 62°
2026-05-05 14:34 14.35931 120.75133 5046 ft 152 kts 62°
2026-05-05 14:34 14.36458 120.76077 4998 ft 151 kts 62°
2026-05-05 14:35 14.36977 120.77009 4827 ft 152 kts 62°
2026-05-05 14:35 14.37504 120.77955 4647 ft 150 kts 63°
2026-05-05 14:35 14.38024 120.78886 4454 ft 150 kts 63°
2026-05-05 14:35 14.38543 120.79817 4264 ft 149 kts 62°
2026-05-05 14:36 14.39060 120.80745 4068 ft 149 kts 62°
2026-05-05 14:36 14.39574 120.81667 3880 ft 148 kts 63°
2026-05-05 14:36 14.40080 120.82575 3687 ft 148 kts 62°
2026-05-05 14:36 14.40590 120.83491 3499 ft 147 kts 63°
2026-05-05 14:37 14.41096 120.84399 3321 ft 146 kts 64°
2026-05-05 14:37 14.41604 120.85311 3135 ft 147 kts 62°
2026-05-05 14:37 14.42117 120.86233 2946 ft 148 kts 62°
2026-05-05 14:37 14.42627 120.87149 2757 ft 148 kts 64°
2026-05-05 14:38 14.43142 120.88074 2562 ft 149 kts 63°
2026-05-05 14:38 14.43662 120.89008 2374 ft 150 kts 61°
2026-05-05 14:38 14.44179 120.89935 2178 ft 148 kts 62°
2026-05-05 14:38 14.44692 120.90859 1989 ft 150 kts 62°
2026-05-05 14:39 14.45202 120.91772 1795 ft 143 kts 62°
2026-05-05 14:39 14.45704 120.92676 1613 ft 144 kts 60°
2026-05-05 14:39 14.46196 120.93561 1410 ft 145 kts 62°
2026-05-05 14:39 14.46689 120.94445 1241 ft 141 kts 63°
2026-05-05 14:40 14.47183 120.95333 1063 ft 142 kts 62°
2026-05-05 14:40 14.47673 120.96215 898 ft 142 kts 62°
2026-05-05 14:40 14.48161 120.97096 742 ft 141 kts 62°
2026-05-05 14:40 14.48673 120.97976 574 ft 142 kts 61°
2026-05-05 14:41 14.49179 120.98846 411 ft 141 kts 64°
2026-05-05 14:41 14.49661 120.99728 220 ft 142 kts 63°
2026-05-05 14:41 14.50134 121.00610 107 ft 139 kts 64°
2026-05-05 14:41 14.50593 121.01470 62 ft 128 kts 64°
2026-05-05 14:42 14.50938 121.02107 64 ft 48 kts 62°
2026-05-05 14:42 14.51057 121.02246 69 ft 18 kts 34°
2026-05-05 14:42 14.51132 121.02300 67 ft 6 kts 33°
2026-05-05 14:42 14.51165 121.02304 69 ft 3 kts 350°
2026-05-05 14:43 14.51187 121.02290 66 ft 4 kts 310°
2026-05-05 14:43 14.51191 121.02265 67 ft 3 kts 261°
2026-05-05 14:43 14.51184 121.02250 64 ft 2 kts 244°
2026-05-05 14:43 14.51179 121.02241 66 ft 1 kts 244°
2026-05-05 14:44 14.51178 121.02237 67 ft 0 kts 244°
2026-05-05 14:44 14.51173 121.02226 68 ft 1 kts 244°
2026-05-05 14:44 14.51161 121.02203 65 ft 9 kts 241°
2026-05-05 14:45 14.51135 121.02148 61 ft 8 kts 257°
2026-05-05 14:45 14.51143 121.02112 67 ft 0 kts 284°
2026-05-05 14:45 14.51134 121.02105 68 ft 7 kts 219°
2026-05-05 14:45 14.51080 121.02055 62 ft 10 kts 233°
2026-05-05 14:46 14.51070 121.01994 69 ft 8 kts 288°
2026-05-05 14:46 14.51105 121.01951 69 ft 8 kts 315°
2026-05-05 14:46 14.51141 121.01915 62 ft 7 kts 315°
2026-05-05 14:46 14.51171 121.01884 59 ft 6 kts 315°
2026-05-05 14:47 14.51198 121.01856 63 ft 5 kts 314°
2026-05-05 14:47 14.51220 121.01832 65 ft 4 kts 314°
2026-05-05 14:47 14.51239 121.01813 67 ft 3 kts 315°
2026-05-05 14:47 14.51257 121.01794 64 ft 6 kts 315°
2026-05-05 14:48 14.51300 121.01751 66 ft 11 kts 315°
2026-05-05 14:48 14.51363 121.01687 65 ft 13 kts 315°
2026-05-05 14:48 14.51421 121.01627 64 ft 11 kts 315°
2026-05-05 14:48 14.51472 121.01573 64 ft 9 kts 314°
2026-05-05 14:49 14.51515 121.01529 66 ft 8 kts 314°
2026-05-05 14:49 14.51547 121.01502 61 ft 4 kts 339°
2026-05-05 14:49 14.51565 121.01511 64 ft 2 kts 45°
2026-05-05 14:49 14.51572 121.01519 62 ft 1 kts 45°
2026-05-05 14:50 14.51577 121.01524 62 ft 2 kts 45°
2026-05-05 14:50 14.51592 121.01540 59 ft 4 kts 44°
2026-05-05 14:50 14.51603 121.01551 62 ft 1 kts 44°
2026-05-05 14:50 14.51607 121.01555 62 ft 1 kts 44°
2026-05-05 14:51 14.51610 121.01557 63 ft 0 kts 44°
2026-05-05 14:51 14.51612 121.01560 64 ft 1 kts 44°
2026-05-05 14:51 14.51619 121.01567 66 ft 0 kts 44°